Date,TemperatureHighF,TemperatureAvgF,TemperatureLowF,DewpointHighF,DewpointAvgF,DewpointLowF,HumidityHigh,HumidityAvg,HumidityLow,PressureMaxIn,PressureMinIn,WindSpeedMaxMPH,WindSpeedAvgMPH,GustSpeedMaxMPH,PrecipitationSumIn
2013-2-1,42.8,28.5,20.1,28.4,11.6,3.4,79,49,35,30.24,29.85,27,5,27,0.00
2013-2-2,43.2,30.5,19.0,31.3,16.3,4.9,88,57,31,30.24,29.94,13,2,13,0.00
2013-2-3,48.0,36.8,29.3,31.7,22.7,15.5,87,58,40,29.97,29.83,23,5,23,0.00
2013-2-4,54.7,37.3,25.2,27.6,18.7,12.7,60,48,32,30.03,29.91,14,2,14,0.00
2013-2-5,60.3,42.6,29.8,36.5,26.5,17.7,76,54,37,29.97,29.85,12,2,12,0.00
2013-2-6,60.6,44.4,30.4,32.6,26.4,19.1,86,53,27,30.12,29.97,10,2,10,0.00
2013-2-7,41.5,41.2,40.3,39.5,25.0,20.1,95,55,42,30.12,29.97,3,0,3,0.38
2013-2-8,51.8,42.6,34.7,44.5,34.9,23.9,98,76,45,30.09,29.88,24,4,24,0.38
2013-2-9,58.5,41.0,30.2,27.4,19.4,-10.8,69,48,6,30.24,30.06,16,4,18,0.00
2013-2-10,51.1,43.2,33.1,45.9,25.8,18.7,96,52,38,30.30,30.09,13,2,13,0.37
2013-2-11,59.4,51.8,44.1,54.5,45.2,28.7,96,79,50,30.09,29.97,13,2,13,0.04
2013-2-12,52.7,45.8,39.9,37.2,25.9,19.8,88,47,31,30.06,29.88,16,3,16,0.08
2013-2-13,56.3,44.1,36.5,44.8,36.2,26.4,96,76,48,29.91,29.62,15,4,15,0.21
2013-2-14,55.9,41.1,32.2,31.9,25.7,21.1,69,55,37,30.00,29.85,16,3,16,0.00
2013-2-15,61.5,40.4,25.3,34.7,27.2,18.8,86,62,32,30.03,29.88,13,2,13,0.00
2013-2-16,36.9,31.5,23.4,25.2,18.4,6.2,90,59,41,29.97,27.61,27,4,27,0.00
2013-2-17,37.4,27.4,21.0,12.1,5.6,-5.6,48,40,17,27.93,27.70,30,8,30,0.00
2013-2-18,53.4,35.7,17.8,25.5,15.5,4.7,74,45,31,28.02,27.88,15,2,15,0.00
2013-2-19,55.8,43.6,35.4,41.2,23.5,8.8,85,47,28,27.88,27.61,24,4,24,0.04
2013-2-20,48.2,37.4,29.8,11.7,-2.6,-15.3,40,21,8,30.06,27.76,17,5,17,0.00
2013-2-21,63.0,41.8,23.9,33.3,3.4,-11.1,76,28,5,30.15,30.00,9,2,9,0.20
2013-2-22,41.0,38.3,35.2,38.6,33.1,28.1,96,82,67,30.18,30.03,10,2,10,0.30
2013-2-23,54.7,46.2,38.3,48.9,43.3,36.4,97,90,80,30.03,29.83,3,1,5,0.16
2013-2-24,58.5,45.5,33.1,41.2,29.4,18.6,94,57,27,30.00,29.83,9,3,15,0.00
2013-2-25,47.5,37.3,29.7,29.2,22.6,17.1,79,56,40,30.09,29.97,5,2,10,0.00
2013-2-26,41.9,36.9,32.5,40.0,34.1,25.4,98,90,69,29.97,29.56,5,2,11,1.20
2013-2-27,59.2,44.3,32.5,36.7,30.6,24.1,98,61,36,29.77,29.65,7,4,13,0.00
2013-2-28,44.2,36.8,32.5,30.4,22.2,18.0,73,56,44,29.85,29.71,11,5,18,0.00